Time,TemperatureF,DewpointF,PressureIn,WindDirection,WindDirectionDegrees,WindSpeedMPH,WindSpeedGustMPH,Humidity,HourlyPrecipIn,Conditions,Clouds,dailyrainin,SoftwareType,DateUTC
2013-03-16 00:00:00,49.4,42.2,29.89,SSE,164,0.0,0.0,76,0.00,,---,0.00,VWS V12.07,2013-03-16 04:00:00,
2013-03-16 00:30:00,54.2,42.3,29.87,NE,42,0.0,2.0,64,0.00,,---,0.00,VWS V12.07,2013-03-16 04:30:00,
2013-03-16 01:00:00,57.3,41.3,29.86,NNE,15,0.0,3.0,55,0.00,,---,0.00,VWS V12.07,2013-03-16 05:00:00,
2013-03-16 01:30:00,55.4,41.3,29.85,NE,54,0.0,3.0,59,0.00,,---,0.00,VWS V12.07,2013-03-16 05:30:00,
2013-03-16 02:00:00,55.0,41.8,29.84,ESE,113,3.0,3.0,61,0.00,,---,0.00,VWS V12.07,2013-03-16 06:00:00,
2013-03-16 02:30:00,54.2,41.5,29.84,East,91,0.0,3.0,62,0.00,,---,0.00,VWS V12.07,2013-03-16 06:30:00,
2013-03-16 03:00:00,52.8,41.0,29.85,SSE,167,0.0,1.0,64,0.00,,---,0.00,VWS V12.07,2013-03-16 07:00:00,
2013-03-16 03:30:00,51.4,41.2,29.85,SSW,192,0.0,3.0,68,0.00,,---,0.00,VWS V12.07,2013-03-16 07:30:00,
2013-03-16 04:00:00,50.2,40.4,29.85,SSW,192,2.0,2.0,69,0.00,,---,0.00,VWS V12.07,2013-03-16 08:00:00,
2013-03-16 04:30:00,50.1,41.4,29.84,South,171,0.0,0.0,72,0.00,,---,0.00,VWS V12.07,2013-03-16 08:30:00,
2013-03-16 05:00:00,50.4,41.0,29.84,South,171,0.0,2.0,70,0.00,,---,0.00,VWS V12.07,2013-03-16 09:00:00,
2013-03-16 05:30:00,52.5,41.5,29.84,South,190,0.0,1.0,66,0.00,,---,0.00,VWS V12.07,2013-03-16 09:30:00,
2013-03-16 06:00:00,52.3,41.7,29.84,South,190,2.0,3.0,67,0.00,,---,0.00,VWS V12.07,2013-03-16 10:00:00,
2013-03-16 06:30:00,50.2,40.4,29.86,East,97,2.0,3.0,69,0.00,,---,0.00,VWS V12.07,2013-03-16 10:30:00,
2013-03-16 07:00:00,48.8,40.2,29.87,East,97,0.0,0.0,72,0.00,,---,0.00,VWS V12.07,2013-03-16 11:00:00,
2013-03-16 07:30:00,47.9,40.0,29.89,South,181,0.0,2.0,74,0.00,,---,0.00,VWS V12.07,2013-03-16 11:30:00,
2013-03-16 08:00:00,46.7,39.9,29.90,South,181,0.0,0.0,77,0.00,,---,0.00,VWS V12.07,2013-03-16 12:00:00,
2013-03-16 08:30:00,46.4,40.2,29.90,South,181,0.0,0.0,79,0.00,,---,0.00,VWS V12.07,2013-03-16 12:30:00,
2013-03-16 09:00:00,46.4,41.2,29.90,South,181,0.0,0.0,82,0.00,,---,0.00,VWS V12.07,2013-03-16 13:00:00,
2013-03-16 09:30:00,48.9,42.3,29.90,South,181,0.0,0.0,78,0.00,,---,0.00,VWS V12.07,2013-03-16 13:30:00,
2013-03-16 10:00:00,56.2,44.2,29.88,NNE,24,3.0,3.0,64,0.00,,---,0.00,VWS V12.07,2013-03-16 14:00:00,
2013-03-16 10:30:00,59.5,44.3,29.88,West,281,1.0,7.0,57,0.00,,---,0.00,VWS V12.07,2013-03-16 14:30:00,
2013-03-16 11:00:00,62.0,44.7,29.86,SE,142,0.0,5.0,53,0.00,,---,0.00,VWS V12.07,2013-03-16 15:00:00,
2013-03-16 11:30:00,63.9,45.4,29.84,South,175,0.0,1.0,51,0.00,,---,0.00,VWS V12.07,2013-03-16 15:30:00,
2013-03-16 12:00:00,65.2,44.5,29.83,SSW,192,6.0,10.0,47,0.00,,---,0.00,VWS V12.07,2013-03-16 16:00:00,
2013-03-16 12:30:00,65.8,44.5,29.82,ENE,78,0.0,6.0,46,0.00,,---,0.00,VWS V12.07,2013-03-16 16:30:00,
2013-03-16 13:00:00,67.4,44.8,29.81,ESE,119,0.0,12.0,44,0.00,,---,0.00,VWS V12.07,2013-03-16 17:00:00,
2013-03-16 13:30:00,68.3,44.3,29.80,NE,45,5.0,10.0,42,0.00,,---,0.00,VWS V12.07,2013-03-16 17:30:00,
2013-03-16 14:00:00,69.8,45.1,29.78,WSW,244,4.0,7.0,41,0.00,,---,0.00,VWS V12.07,2013-03-16 18:00:00,
2013-03-16 14:30:00,70.3,44.9,29.77,East,90,1.0,4.0,40,0.00,,---,0.00,VWS V12.07,2013-03-16 18:30:00,
2013-03-16 15:00:00,71.3,45.1,29.76,SE,142,2.0,13.0,39,0.00,,---,0.00,VWS V12.07,2013-03-16 19:00:00,
2013-03-16 15:30:00,72.0,46.4,29.76,SSE,153,1.0,5.0,40,0.00,,---,0.00,VWS V12.07,2013-03-16 19:30:00,
2013-03-16 16:00:00,72.8,47.8,29.75,SSE,150,0.0,5.0,41,0.00,,---,0.00,VWS V12.07,2013-03-16 20:00:00,
2013-03-16 16:30:00,72.5,45.5,29.75,ESE,120,1.0,9.0,38,0.00,,---,0.00,VWS V12.07,2013-03-16 20:30:00,
2013-03-16 17:00:00,71.8,47.5,29.76,SSE,148,0.0,4.0,42,0.00,,---,0.00,VWS V12.07,2013-03-16 21:00:00,
2013-03-16 17:30:00,70.9,44.0,29.76,South,178,1.0,5.0,38,0.00,,---,0.00,VWS V12.07,2013-03-16 21:30:00,
2013-03-16 18:00:00,69.4,42.0,29.76,WNW,297,0.0,6.0,37,0.00,,---,0.00,VWS V12.07,2013-03-16 22:00:00,
2013-03-16 18:30:00,68.3,41.7,29.77,SSW,213,0.0,4.0,38,0.00,,---,0.00,VWS V12.07,2013-03-16 22:30:00,
2013-03-16 19:00:00,67.3,40.8,29.77,ESE,103,6.0,9.0,38,0.00,,---,0.00,VWS V12.07,2013-03-16 23:00:00,
2013-03-16 19:30:00,65.6,41.3,29.80,NNE,20,0.0,0.0,41,0.00,,---,0.00,VWS V12.07,2013-03-16 23:30:00,
2013-03-16 20:00:00,61.6,43.8,29.82,West,262,1.0,2.0,52,0.00,,---,0.00,VWS V12.07,2013-03-17 00:00:00,
2013-03-16 20:30:00,59.2,42.6,29.83,West,262,1.0,2.0,54,0.00,,---,0.00,VWS V12.07,2013-03-17 00:30:00,
2013-03-16 21:00:00,58.7,42.1,29.84,SSE,164,3.0,4.0,54,0.00,,---,0.00,VWS V12.07,2013-03-17 01:00:00,
2013-03-16 21:30:00,58.6,42.0,29.83,SSE,161,3.0,3.0,54,0.00,,---,0.00,VWS V12.07,2013-03-17 01:30:00,
2013-03-16 22:00:00,58.0,42.4,29.84,SE,133,0.0,4.0,56,0.00,,---,0.00,VWS V12.07,2013-03-17 02:00:00,
2013-03-16 22:30:00,56.9,42.3,29.83,South,175,2.0,3.0,58,0.00,,---,0.00,VWS V12.07,2013-03-17 02:30:00,
2013-03-16 23:00:00,55.7,42.0,29.85,South,175,0.0,2.0,60,0.00,,---,0.00,VWS V12.07,2013-03-17 03:00:00,
2013-03-16 23:30:00,53.6,42.1,29.84,South,175,0.0,0.0,65,0.00,,---,0.00,VWS V12.07,2013-03-17 03:30:00,